Wetterdaten Frühling 2016

Datum T max T min Regen
01.03.2016 7.3 °C -0.6 °C 0 mm
02.03.2016 8.7 °C 2.2 °C 4 mm
03.03.2016 6.2 °C 1.6 °C 0.8 mm
04.03.2016 7.2 °C 0.6 °C 0.8 mm
05.03.2016 6.8 °C 2.8 °C 2.4 mm
06.03.2016 5.7 °C 0.6 °C 3 mm
07.03.2016 6.5 °C -0.1 °C 0.2 mm
08.03.2016 4.1 °C -1.4 °C 0 mm
09.03.2016 6 °C -1.8 °C 0 mm
10.03.2016 9.3 °C -3.7 °C 0 mm
11.03.2016 8.2 °C -2.6 °C 0 mm
12.03.2016 9.8 °C 1.8 °C 0 mm
13.03.2016 9.3 °C 3.3 °C 0 mm
14.03.2016 10.4 °C 0.1 °C 0 mm
15.03.2016 4.8 °C -1.9 °C 2 mm
16.03.2016 9.1 °C 0.7 °C 0 mm
17.03.2016 12.8 °C -2.5 °C 0 mm
18.03.2016 14.2 °C -1.6 °C 0 mm
19.03.2016 5.1 °C -0.2 °C 0 mm
20.03.2016 8.5 °C 3.2 °C 0 mm
21.03.2016 9.6 °C 3.4 °C 0 mm
22.03.2016 11.2 °C 4 °C 0 mm
23.03.2016 8.7 °C 4.2 °C 0 mm
24.03.2016 10.4 °C 4.1 °C 0 mm
25.03.2016 7.6 °C 5.5 °C 7.2 mm
26.03.2016 15 °C 2.7 °C 0.2 mm
27.03.2016 10.9 °C 4.6 °C 0 mm
28.03.2016 16.6 °C 2.3 °C 4.6 mm
29.03.2016 13.2 °C 4.7 °C 2 mm
30.03.2016 11.2 °C 5.7 °C 4.6 mm
31.03.2016 19 °C 7.7 °C 9.8 mm
01.04.2016 11.6 °C 5.2 °C 0.4 mm
02.04.2016 16.2 °C 4.1 °C 0 mm
03.04.2016 19.8 °C 7.6 °C 0 mm
04.04.2016 17.1 °C 11.7 °C 0 mm
05.04.2016 17.4 °C 8.8 °C 7.8 mm
06.04.2016 15.9 °C 8.2 °C 0.4 mm
07.04.2016 10.7 °C 6 °C 0.4 mm
08.04.2016 12.3 °C 2.3 °C 0 mm
09.04.2016 11.7 °C 3.4 °C 0.2 mm
10.04.2016 15.9 °C 7.2 °C 0 mm
11.04.2016 18.3 °C 3 °C 0 mm
12.04.2016 16.4 °C 8.1 °C 19.4 mm
13.04.2016 13.9 °C 7.1 °C 10.6 mm
14.04.2016 15.4 °C 6.4 °C 0 mm
15.04.2016 16 °C 7.2 °C 4 mm
16.04.2016 12.5 °C 8.6 °C 8.8 mm
17.04.2016 10.8 °C 6.3 °C 10.4 mm
18.04.2016 12 °C 5.9 °C 0.2 mm
19.04.2016 13.2 °C 2.8 °C 0 mm
20.04.2016 17.1 °C 1.3 °C 0 mm
21.04.2016 21.3 °C 2.5 °C 0 mm
22.04.2016 18.1 °C 5.4 °C 0 mm
23.04.2016 12.4 °C 3.6 °C 2.6 mm
24.04.2016 8.1 °C 2 °C 0.2 mm
25.04.2016 7.2 °C 0.7 °C 0.2 mm
26.04.2016 7.7 °C 0.9 °C 6 mm
27.04.2016 8.6 °C 1.7 °C 1 mm
28.04.2016 10.8 °C 1.6 °C 5.8 mm
29.04.2016 15.7 °C 0.2 °C 0 mm
30.04.2016 17.5 °C 1.9 °C 0.2 mm
01.05.2016 16.9 °C 6.1 °C 0.4 mm
02.05.2016 19.5 °C 6.2 °C 0 mm
03.05.2016 15.7 °C 6.4 °C 0.8 mm
04.05.2016 16.2 °C 3.8 °C 0 mm
05.05.2016 18.7 °C 2.4 °C 0 mm
06.05.2016 24.6 °C 6.3 °C 0 mm
07.05.2016 24.8 °C 8.2 °C 0 mm
08.05.2016 24.7 °C 10.5 °C 0 mm
09.05.2016 25.4 °C 11 °C 0 mm
10.05.2016 18.3 °C 13.1 °C 2.2 mm
11.05.2016 22.8 °C 10.7 °C 0.6 mm
12.05.2016 16.2 °C 13.1 °C 1.6 mm
13.05.2016 15.4 °C 12.2 °C 6.4 mm
14.05.2016 13.1 °C 8.9 °C 0.8 mm
15.05.2016 11.6 °C 5.6 °C 0 mm
16.05.2016 10.3 °C 5.8 °C 5.4 mm
17.05.2016 15.7 °C 6.3 °C 0 mm
18.05.2016 20.7 °C 6.8 °C 0 mm
19.05.2016 15.3 °C 10.3 °C 1.6 mm
20.05.2016 20.4 °C 6.7 °C 0 mm
21.05.2016 25.6 °C 9 °C 0 mm
22.05.2016 26.7 °C 12 °C 2.2 mm
23.05.2016 13.4 °C 10.7 °C 5 mm
24.05.2016 10.7 °C 9.6 °C 5.4 mm
25.05.2016 18.3 °C 9.6 °C 0.2 mm
26.05.2016 24.8 °C 8.4 °C 0 mm
27.05.2016 25 °C 14.1 °C 0 mm
28.05.2016 22.2 °C 15.8 °C 2.4 mm
29.05.2016 20.9 °C 14.8 °C 32.8 mm
30.05.2016 20.1 °C 14.1 °C 8.2 mm
31.05.2016 21.5 °C 11.6 °C 0 mm
 Hinweis zur Datenqualität
∅ Temperatur

9.5 °C

Abweichung vom Mittel

-0.6 °C

Niederschlag

196.2 mm

Abweichung vom Mittel

112 %

26.7 °C

Lufttemperatur
22.05.2016

1030 hPa

Luftdruck
14.03.2016

28.8 km/h

Windböen
29.03.2016

196.2 mm

Niederschlag
 

-3.7 °C

Lufttemperatur
10.03.2016

-3.2 °C

Bodentemperatur 5cm
10.03.2016

994 hPa

Luftdruck
05.03.2016
 Hinweis zur Datenqualität